Wind_Speed
3 2 2 3 3 3 3 4 3 5 5 5 5 6 6 7 7 7 7 7 6 6 6 7 7 7 6 6 5 5 5 5 4 4 3 4 3 3 2 2 3 3 4
3 3 4 4 4 4 3 4 3 5 5 6 5 6 6 6 7 8 8 7 7 7 7 7 7 6 6 5 5 4 4 4 4 4 3 3 3 2 2 1 2 2 3
4 4 4 4 4 4 4 3 3 5 6 6 5 5 6 6 6 7 8 8 8 8 7 7 7 6 6 4 4 4 4 4 3 4 3 2 2 2 1 1 2 2 2
4 4 4 4 4 4 4 4 4 4 5 5 4 4 6 6 6 8 8 8 8 8 8 7 6 6 6 5 5 4 3 3 3 3 3 2 1 2 1 2 2 2 1
4 4 4 4 4 4 3 3 4 5 4 4 4 4 5 7 7 7 8 8 8 9 8 8 7 7 6 5 5 4 3 3 3 3 2 1 1 1 1 2 3 3 2
4 4 4 4 3 4 4 4 4 5 4 4 4 4 5 6 6 7 7 7 7 8 8 8 7 7 6 5 5 4 3 2 2 3 2 1 1 0 1 2 2 2 2
4 3 3 4 3 3 4 4 4 4 4 4 4 4 4 5 6 7 8 7 8 8 8 8 7 7 6 6 5 5 4 3 3 2 2 1 1 1 1 2 2 2 2
3 2 2 1 1 2 3 3 3 3 3 3 3 4 4 4 5 7 7 8 8 8 9 8 8 7 7 6 6 5 4 3 3 3 2 1 1 0 1 2 2 2 1
3 1 1 0 1 1 1 2 2 3 3 3 3 4 4 3 5 6 7 7 7 8 9 8 8 7 6 6 6 5 4 4 3 3 2 1 0 0 1 1 2 2 1
4 3 2 1 1 2 2 2 2 2 3 2 3 4 4 4 5 5 7 7 7 7 8 8 7 7 6 6 5 5 4 4 4 4 3 2 1 1 1 1 1 1 1
5 4 3 2 1 2 2 3 3 3 3 3 3 3 4 4 5 6 7 7 8 7 7 7 7 6 6 6 6 5 4 4 4 5 3 2 2 2 2 2 2 2 2
5 5 4 3 2 2 3 3 3 3 2 3 3 3 3 4 5 6 7 6 7 8 8 7 7 7 6 6 5 5 5 5 6 6 5 4 4 3 3 3 3 4 3
6 6 5 4 3 3 3 3 2 2 2 2 2 2 3 3 5 5 6 6 7 8 8 8 7 7 6 6 6 6 6 5 5 6 6 6 5 4 4 5 5 4 5
7 7 6 6 4 4 3 2 2 2 1 1 1 1 2 2 4 4 4 5 7 8 8 8 7 7 7 7 7 6 5 4 4 5 5 6 6 6 6 6 5 6 6
8 8 8 8 6 5 4 3 2 2 1 1 1 1 1 2 3 2 2 4 6 7 7 8 7 7 7 6 6 6 6 5 5 5 6 6 6 6 6 6 7 7 7
10 9 9 8 7 6 5 4 2 1 1 1 0 1 1 2 2 2 3 3 4 5 6 6 6 7 7 6 6 6 6 7 7 7 7 7 6 7 7 7 7 7 7
11 11 10 9 7 7 6 6 3 1 1 1 0 0 1 1 2 3 3 3 3 4 4 4 4 5 5 5 6 6 6 7 7 8 8 8 8 8 8 7 7 7 7
12 11 10 10 8 6 6 6 5 3 2 1 1 0 0 1 2 2 3 3 3 4 4 4 4 5 5 5 5 6 6 6 7 7 8 8 8 8 8 7 8 8 8
13 11 10 8 7 6 6 5 5 4 3 2 1 0 1 1 1 1 2 3 4 4 4 4 4 5 5 6 6 6 7 7 7 7 8 8 8 8 8 8 8 8 9
13 12 10 8 7 7 6 5 5 5 4 3 2 2 1 2 1 1 1 3 3 3 4 4 4 5 6 6 6 7 7 7 8 8 8 8 8 8 8 8 8 8 8
13 13 12 9 7 6 6 6 5 5 5 4 3 2 2 1 2 2 2 3 3 3 4 4 5 6 6 6 7 7 7 8 8 8 8 8 8 8 8 8 8 8 9
13 13 12 11 9 7 6 6 5 5 5 6 4 3 2 2 2 3 3 3 3 4 4 5 6 6 6 6 7 7 7 8 7 8 8 8 8 8 9 9 9 9 10
13 13 12 11 9 7 6 5 5 5 5 5 5 4 3 3 3 3 4 4 4 4 5 5 6 6 6 7 8 8 8 8 8 8 9 8 9 9 10 10 9 10 12
13 12 11 10 9 8 7 6 5 5 5 5 5 5 4 4 3 4 4 4 5 5 5 5 6 7 7 7 8 8 8 8 9 9 10 10 10 10 10 11 11 11 11
13 12 11 11 9 8 8 7 6 7 7 6 6 6 5 5 5 5 5 5 6 6 6 5 6 7 7 8 8 9 9 9 9 10 11 11 12 12 12 13 12 12 12
13 12 11 11 9 9 8 8 8 8 8 7 6 6 6 6 6 6 6 6 6 6 6 7 7 8 8 9 9 9 9 9 10 11 11 12 13 14 14 13 13 14 13
Wind_Direction
298 281 259 256 246 244 244 242 232 220 208 207 199 203 199 193 193 191 186 185 183 180 178 180 182 183 182 181 171 158 154 154 149 141 126 123 122 108 77 68 66 64 63
296 282 270 260 252 248 245 243 234 220 215 217 217 216 209 207 204 199 199 197 191 181 179 183 182 180 181 184 182 168 165 158 162 156 133 112 115 114 86 52 50 55 59
298 280 265 255 252 246 244 247 240 225 219 214 217 219 213 216 210 202 200 198 198 189 182 179 185 178 183 174 167 161 162 164 157 157 150 136 125 114 105 50 33 45 49
298 280 264 250 242 237 233 244 243 221 213 213 221 224 215 213 213 203 199 199 197 193 188 183 179 179 180 163 155 146 139 150 156 159 165 151 125 108 107 52 48 47 35
297 278 268 253 244 237 233 239 239 228 219 219 227 218 210 214 211 203 206 204 201 199 195 190 188 183 178 175 167 154 146 136 156 170 177 179 140 119 79 46 45 39 30
302 285 272 266 250 234 232 232 232 229 226 231 235 219 207 213 213 208 205 208 207 204 201 198 200 191 186 180 177 171 170 165 175 187 194 195 203 170 44 27 36 39 17
308 293 268 264 255 238 238 236 231 237 240 246 240 233 217 211 209 206 204 204 204 206 206 206 206 198 196 191 187 182 185 194 208 213 214 219 228 246 14 356 1 16 10
323 313 277 243 265 248 245 240 245 249 246 239 236 233 216 206 203 203 204 201 201 201 200 204 206 204 205 200 196 192 199 202 213 222 222 227 230 221 26 15 19 8 11
354 5 17 256 290 280 285 268 269 255 249 239 238 230 220 207 194 194 193 198 202 201 201 201 205 202 209 211 207 203 210 217 224 234 226 218 228 335 320 355 357 9 22
27 42 39 27 316 301 304 296 291 283 263 242 239 235 232 223 200 200 195 196 200 203 204 203 203 206 212 215 215 219 230 239 238 239 239 247 259 292 285 294 324 357 356
33 27 23 12 346 322 312 307 289 289 280 261 249 248 237 222 204 204 203 205 203 202 200 203 202 205 213 221 224 226 235 246 246 253 256 262 256 272 269 270 289 305 319
27 20 13 16 7 347 324 314 295 295 288 280 252 242 235 219 206 204 212 215 210 212 212 210 207 213 218 225 230 234 244 249 252 258 258 268 265 261 267 275 281 288 296
26 19 11 10 11 348 325 318 311 326 317 282 261 233 214 228 210 202 211 214 213 216 219 217 215 217 218 226 236 245 250 254 252 263 264 270 266 267 270 276 280 284 290
20 18 15 15 13 2 344 329 326 335 350 296 266 275 250 247 209 200 204 212 209 214 218 219 218 221 220 226 237 247 251 259 263 271 274 274 270 269 272 272 275 281 287
13 15 20 16 15 11 358 328 329 319 313 347 291 295 293 236 219 196 216 220 211 210 210 212 216 223 226 229 240 252 254 261 270 273 274 276 277 273 272 272 274 281 286
15 15 18 16 14 10 5 357 340 328 340 16 330 315 311 236 211 214 210 210 207 201 199 205 216 227 229 232 239 250 259 266 274 274 273 276 276 277 274 277 275 279 282
13 13 15 13 11 12 12 22 24 21 5 337 305 306 320 191 191 203 211 208 207 205 203 211 221 229 241 241 244 253 263 269 271 269 271 276 279 279 278 276 277 277 279
13 11 12 14 19 21 20 27 40 52 28 46 74 141 304 192 202 205 214 210 206 213 221 227 230 240 246 251 256 260 267 276 277 279 283 286 283 283 281 277 281 280 280
12 10 11 16 16 18 21 30 35 46 55 52 38 316 291 305 249 224 231 232 223 221 228 231 236 245 250 255 263 270 272 280 290 291 290 292 292 292 286 279 279 278 280
10 11 11 13 13 15 20 23 31 38 42 41 38 43 22 0 347 288 261 237 238 238 238 239 238 244 254 258 265 269 277 286 293 296 296 300 298 290 287 281 278 279 279
8 11 12 10 7 5 9 15 24 25 26 29 35 48 48 34 10 350 303 272 270 254 250 250 249 250 255 256 263 271 277 286 290 296 299 298 298 297 292 283 276 277 279
2 6 7 10 9 4 2 4 9 11 15 14 10 5 12 357 337 328 306 287 273 261 263 259 254 254 258 262 265 270 275 283 287 298 298 299 301 300 296 289 282 278 277
356 360 2 3 6 6 4 5 0 1 5 2 1 359 344 339 333 326 314 311 287 278 273 261 256 258 263 266 270 274 280 285 287 293 297 303 303 300 296 290 290 287 280
349 352 357 357 356 359 356 351 350 346 343 342 342 341 332 334 334 322 308 309 302 293 280 269 270 272 273 272 275 279 283 285 287 289 295 297 296 294 293 293 290 286 283
343 343 346 349 348 345 346 341 334 334 330 326 325 323 327 334 334 331 319 317 313 305 295 288 286 284 282 280 280 286 289 284 286 290 292 294 296 295 294 294 289 286 288
338 336 336 340 339 338 335 331 326 323 322 320 319 323 323 326 327 328 324 318 319 311 302 299 295 292 291 288 288 293 292 289 289 293 296 294 296 299 296 294 291 288 291
Height
5880 5879 5879 5879 5879 5879 5880 5880 5880 5880 5880 5881 5882 5882 5882 5883 5883 5884 5885 5886 5887 5888 5889 5890 5891 5893 5894 5896 5897 5897 5898 5899 5900 5901 5902 5902 5903 5903 5903 5904 5904 5905 5905
5879 5879 5878 5878 5879 5879 5879 5880 5880 5879 5880 5880 5881 5882 5882 5882 5883 5884 5885 5886 5887 5888 5889 5890 5892 5893 5895 5896 5897 5898 5899 5900 5901 5902 5902 5903 5903 5904 5904 5904 5905 5905 5905
5879 5878 5878 5878 5878 5879 5879 5880 5880 5879 5879 5880 5881 5881 5881 5882 5882 5883 5884 5885 5886 5887 5889 5891 5892 5893 5895 5896 5897 5898 5899 5900 5901 5902 5903 5903 5904 5904 5904 5905 5905 5905 5906
5879 5879 5878 5877 5878 5878 5879 5879 5880 5880 5879 5880 5880 5881 5881 5881 5882 5882 5883 5884 5885 5887 5889 5891 5892 5894 5895 5896 5897 5898 5899 5900 5901 5902 5903 5903 5904 5904 5905 5905 5905 5906 5906
5880 5879 5878 5877 5878 5878 5879 5879 5880 5880 5880 5880 5880 5880 5880 5880 5881 5882 5883 5884 5885 5886 5888 5890 5892 5894 5895 5897 5898 5899 5900 5901 5902 5903 5903 5904 5904 5904 5905 5905 5905 5905 5906
5879 5879 5878 5877 5877 5878 5879 5879 5880 5880 5880 5880 5880 5879 5879 5880 5880 5881 5882 5884 5885 5886 5888 5890 5892 5893 5895 5896 5898 5899 5900 5901 5902 5903 5904 5904 5904 5905 5905 5905 5905 5905 5906
5879 5879 5878 5877 5878 5878 5879 5879 5879 5880 5880 5880 5880 5879 5879 5880 5880 5881 5882 5883 5885 5886 5888 5890 5892 5893 5895 5896 5898 5899 5900 5901 5902 5903 5904 5904 5904 5905 5905 5905 5905 5905 5906
5879 5879 5878 5878 5878 5879 5879 5879 5879 5879 5879 5880 5880 5879 5879 5880 5880 5880 5881 5883 5885 5886 5888 5890 5892 5894 5895 5897 5898 5899 5900 5901 5902 5903 5903 5904 5904 5905 5905 5906 5906 5905 5905
5880 5879 5878 5879 5879 5879 5879 5880 5879 5879 5879 5879 5879 5879 5879 5879 5879 5880 5881 5883 5885 5887 5888 5890 5892 5894 5895 5897 5898 5899 5900 5901 5902 5903 5903 5904 5904 5904 5905 5906 5906 5906 5905
5880 5879 5879 5880 5879 5879 5879 5879 5879 5879 5879 5878 5878 5879 5879 5879 5879 5880 5881 5883 5885 5886 5888 5890 5892 5894 5896 5897 5898 5899 5900 5901 5902 5903 5903 5904 5904 5905 5905 5905 5906 5906 5905
5882 5881 5880 5880 5880 5880 5880 5879 5879 5879 5878 5878 5878 5878 5879 5879 5880 5880 5881 5883 5884 5886 5888 5890 5892 5894 5896 5897 5898 5899 5900 5901 5902 5902 5903 5904 5904 5904 5905 5905 5905 5906 5905
5883 5882 5881 5880 5880 5880 5879 5879 5879 5879 5878 5878 5878 5878 5878 5878 5879 5880 5881 5883 5884 5886 5888 5890 5892 5894 5895 5897 5898 5899 5900 5901 5902 5902 5903 5903 5904 5904 5904 5905 5905 5905 5905
5884 5883 5882 5881 5880 5880 5879 5879 5879 5878 5878 5878 5877 5877 5878 5878 5879 5880 5881 5882 5884 5886 5888 5890 5892 5893 5895 5896 5898 5899 5900 5900 5901 5902 5902 5903 5904 5904 5904 5904 5904 5904 5905
5885 5884 5883 5882 5881 5880 5879 5878 5878 5878 5878 5877 5877 5877 5878 5878 5879 5880 5881 5882 5883 5885 5887 5890 5892 5893 5895 5896 5897 5899 5899 5900 5901 5901 5902 5902 5902 5903 5903 5903 5904 5904 5904
5886 5884 5883 5882 5881 5880 5878 5878 5878 5878 5878 5878 5878 5878 5878 5878 5879 5880 5881 5882 5883 5885 5887 5889 5892 5893 5895 5896 5897 5898 5899 5899 5899 5900 5901 5901 5901 5902 5902 5902 5903 5903 5903
5887 5885 5884 5883 5881 5880 5878 5877 5877 5878 5878 5878 5878 5878 5879 5879 5880 5881 5882 5883 5884 5885 5887 5890 5892 5893 5894 5895 5896 5897 5898 5898 5898 5899 5899 5900 5900 5901 5901 5901 5902 5902 5902
5888 5887 5885 5884 5882 5880 5879 5878 5878 5878 5879 5879 5879 5879 5879 5879 5880 5881 5882 5883 5885 5886 5888 5890 5891 5893 5894 5894 5895 5896 5897 5897 5898 5898 5898 5899 5899 5899 5900 5900 5900 5900 5900
5890 5888 5887 5885 5883 5882 5881 5880 5879 5879 5880 5879 5879 5879 5880 5881 5881 5882 5883 5884 5885 5887 5888 5890 5891 5892 5893 5894 5894 5895 5895 5896 5896 5897 5897 5897 5897 5898 5898 5898 5898 5898 5898
5891 5889 5888 5886 5885 5884 5883 5882 5881 5881 5881 5881 5881 5881 5881 5882 5882 5883 5884 5885 5886 5887 5888 5889 5890 5892 5893 5893 5894 5894 5895 5895 5895 5895 5895 5896 5896 5896 5896 5896 5896 5896 5897
5892 5890 5889 5887 5886 5885 5884 5883 5883 5882 5882 5882 5882 5881 5882 5883 5883 5884 5884 5885 5886 5887 5888 5889 5890 5891 5892 5892 5893 5893 5893 5894 5894 5894 5894 5894 5894 5894 5894 5894 5894 5894 5894
5894 5892 5890 5888 5887 5886 5885 5885 5884 5884 5884 5883 5883 5883 5883 5884 5884 5884 5885 5886 5886 5886 5887 5888 5889 5890 5890 5891 5892 5892 5892 5892 5892 5892 5892 5892 5892 5892 5892 5892 5892 5892 5892
5894 5893 5891 5889 5887 5886 5886 5886 5885 5885 5885 5884 5884 5884 5884 5884 5885 5885 5885 5885 5886 5886 5887 5887 5888 5889 5889 5890 5890 5891 5891 5892 5891 5891 5890 5890 5890 5890 5890 5890 5890 5890 5890
5895 5893 5892 5890 5888 5887 5887 5886 5886 5886 5886 5885 5885 5885 5885 5885 5885 5885 5885 5886 5886 5886 5886 5887 5887 5888 5888 5888 5889 5890 5890 5890 5890 5890 5889 5888 5888 5888 5888 5887 5888 5887 5887
5895 5893 5892 5890 5889 5888 5887 5887 5887 5887 5887 5886 5886 5886 5885 5885 5885 5885 5885 5885 5885 5885 5886 5886 5886 5887 5887 5887 5887 5887 5888 5888 5888 5888 5888 5887 5886 5886 5885 5885 5885 5884 5884
5895 5894 5892 5891 5889 5888 5888 5887 5887 5887 5887 5887 5886 5886 5886 5886 5886 5886 5885 5885 5885 5885 5885 5885 5886 5886 5886 5886 5886 5886 5886 5886 5886 5886 5886 5885 5884 5883 5883 5882 5881 5881 5880
5895 5893 5892 5891 5889 5888 5888 5887 5887 5887 5886 5886 5886 5886 5885 5885 5885 5885 5885 5885 5885 5884 5885 5885 5885 5885 5885 5884 5884 5884 5883 5883 5883 5883 5883 5882 5882 5881 5880 5879 5878 5878 5877